Time,TemperatureF,DewpointF,PressureIn,WindDirection,WindDirectionDegrees,WindSpeedMPH,WindSpeedGustMPH,Humidity,HourlyPrecipIn,Conditions,Clouds,dailyrainin,SolarRadiationWatts/m^2,SoftwareType,DateUTC
2013-01-22 00:06:00,52.0,46.0,29.52,SSW,192,2.0,2.0,80,0.00,,,0.00,0,Wunderground v.1.15,2013-01-21 23:06:00,
2013-01-22 00:16:00,51.8,45.8,29.53,South,177,2.0,3.0,80,0.00,,,0.00,0,Wunderground v.1.15,2013-01-21 23:16:00,
2013-01-22 00:21:00,51.8,45.8,29.52,South,169,3.0,3.0,80,0.00,,,0.00,0,Wunderground v.1.15,2013-01-21 23:21:00,
2013-01-22 00:26:00,51.8,45.8,29.52,SSE,163,3.0,4.0,80,0.00,,,0.00,0,Wunderground v.1.15,2013-01-21 23:26:00,
2013-01-22 00:36:00,51.9,45.9,29.52,SSE,147,4.0,4.0,80,0.00,,,0.00,0,Wunderground v.1.15,2013-01-21 23:36:00,
2013-01-22 00:41:00,51.8,46.2,29.52,SSE,150,4.0,4.0,81,0.00,,,0.00,0,Wunderground v.1.15,2013-01-21 23:41:00,
2013-01-22 00:46:00,51.7,46.1,29.51,SE,144,3.0,4.0,81,0.00,,,0.00,0,Wunderground v.1.15,2013-01-21 23:46:00,
2013-01-22 00:56:00,51.1,45.8,29.52,South,171,2.0,2.0,82,0.00,,,0.00,0,Wunderground v.1.15,2013-01-21 23:56:00,
2013-01-22 01:01:00,51.2,45.9,29.52,SSE,151,2.0,2.0,82,0.00,,,0.00,0,Wunderground v.1.15,2013-01-22 00:01:00,
2013-01-22 01:11:00,50.6,45.6,29.53,SSE,152,1.0,2.0,83,0.00,,,0.00,0,Wunderground v.1.15,2013-01-22 00:11:00,
2013-01-22 01:16:00,50.4,45.7,29.53,SSE,161,2.0,2.0,84,0.00,,,0.00,0,Wunderground v.1.15,2013-01-22 00:16:00,
2013-01-22 01:21:00,50.2,45.6,29.53,SSE,160,2.0,3.0,84,0.00,,,0.00,0,Wunderground v.1.15,2013-01-22 00:21:00,
2013-01-22 01:31:00,49.9,45.6,29.53,SSE,155,2.0,2.0,85,0.00,,,0.00,0,Wunderground v.1.15,2013-01-22 00:31:00,
2013-01-22 01:41:00,49.7,45.4,29.53,SE,141,2.0,2.0,85,0.00,,,0.00,0,Wunderground v.1.15,2013-01-22 00:41:00,
2013-01-22 01:51:00,49.4,45.4,29.54,SE,141,0.0,0.0,86,0.00,,,0.00,0,Wunderground v.1.15,2013-01-22 00:51:00,
2013-01-22 01:56:00,49.4,45.4,29.54,SE,141,0.0,2.0,86,0.00,,,0.00,0,Wunderground v.1.15,2013-01-22 00:56:00,
2013-01-22 02:06:00,50.0,45.7,29.55,SSE,153,2.0,2.0,85,0.00,,,0.00,0,Wunderground v.1.15,2013-01-22 01:06:00,
2013-01-22 02:11:00,50.1,45.8,29.55,SSE,168,3.0,3.0,85,0.00,,,0.00,0,Wunderground v.1.15,2013-01-22 01:11:00,
2013-01-22 02:21:00,50.0,45.7,29.55,SSE,152,3.0,3.0,85,0.00,,,0.00,0,Wunderground v.1.15,2013-01-22 01:21:00,
2013-01-22 02:26:00,50.0,45.4,29.55,SSE,152,2.0,3.0,84,0.00,,,0.00,0,Wunderground v.1.15,2013-01-22 01:26:00,
2013-01-22 02:36:00,50.1,45.8,29.56,SSE,152,1.0,1.0,85,0.00,,,0.00,0,Wunderground v.1.15,2013-01-22 01:36:00,
2013-01-22 02:41:00,50.4,45.7,29.56,SSE,152,2.0,2.0,84,0.00,,,0.00,0,Wunderground v.1.15,2013-01-22 01:41:00,
2013-01-22 02:51:00,49.7,45.4,29.56,SSE,152,1.0,1.0,85,0.00,,,0.00,0,Wunderground v.1.15,2013-01-22 01:51:00,
2013-01-22 02:56:00,49.5,45.2,29.56,SSE,152,1.0,2.0,85,0.00,,,0.00,0,Wunderground v.1.15,2013-01-22 01:56:00,
2013-01-22 03:06:00,48.9,44.9,29.56,SSE,153,1.0,1.0,86,0.00,,,0.00,0,Wunderground v.1.15,2013-01-22 02:06:00,
2013-01-22 03:11:00,48.5,44.8,29.56,SSE,153,1.0,1.0,87,0.00,,,0.00,0,Wunderground v.1.15,2013-01-22 02:11:00,
2013-01-22 03:21:00,48.7,45.3,29.56,SSE,165,2.0,3.0,88,0.00,,,0.00,0,Wunderground v.1.15,2013-01-22 02:21:00,
2013-01-22 03:26:00,49.1,45.4,29.56,SSE,160,3.0,3.0,87,0.00,,,0.00,0,Wunderground v.1.15,2013-01-22 02:26:00,
2013-01-22 03:36:00,48.5,44.8,29.57,SSE,160,1.0,2.0,87,0.00,,,0.00,0,Wunderground v.1.15,2013-01-22 02:36:00,
2013-01-22 03:41:00,48.1,44.4,29.57,SSE,165,1.0,2.0,87,0.00,,,0.00,0,Wunderground v.1.15,2013-01-22 02:41:00,
2013-01-22 03:51:00,48.2,44.8,29.57,SSE,156,2.0,2.0,88,0.00,,,0.00,0,Wunderground v.1.15,2013-01-22 02:51:00,
2013-01-22 03:56:00,48.1,44.7,29.57,SSE,166,3.0,3.0,88,0.00,,,0.00,0,Wunderground v.1.15,2013-01-22 02:56:00,
2013-01-22 04:01:00,47.9,44.5,29.57,SSE,163,3.0,4.0,88,0.00,,,0.00,0,Wunderground v.1.15,2013-01-22 03:01:00,
2013-01-22 04:11:00,48.2,44.8,29.57,SSE,159,3.0,4.0,88,0.00,,,0.00,0,Wunderground v.1.15,2013-01-22 03:11:00,
2013-01-22 04:21:00,48.4,44.4,29.58,SSE,161,2.0,2.0,86,0.00,,,0.00,0,Wunderground v.1.15,2013-01-22 03:21:00,
2013-01-22 04:26:00,48.4,44.4,29.58,SSE,155,2.0,3.0,86,0.00,,,0.00,0,Wunderground v.1.15,2013-01-22 03:26:00,
2013-01-22 04:31:00,48.4,44.1,29.58,South,178,3.0,3.0,85,0.00,,,0.00,0,Wunderground v.1.15,2013-01-22 03:31:00,
2013-01-22 04:36:00,48.4,44.1,29.57,SSE,160,2.0,3.0,85,0.00,,,0.00,0,Wunderground v.1.15,2013-01-22 03:36:00,
2013-01-22 04:46:00,48.7,44.4,29.57,South,181,2.0,2.0,85,0.00,,,0.00,0,Wunderground v.1.15,2013-01-22 03:46:00,
2013-01-22 04:56:00,48.8,44.2,29.58,SSW,197,2.0,5.0,84,0.00,,,0.00,0,Wunderground v.1.15,2013-01-22 03:56:00,
2013-01-22 05:01:00,48.8,44.2,29.58,SSW,205,3.0,3.0,84,0.00,,,0.00,0,Wunderground v.1.15,2013-01-22 04:01:00,
2013-01-22 05:06:00,48.9,44.0,29.58,South,182,4.0,4.0,83,0.00,,,0.00,0,Wunderground v.1.15,2013-01-22 04:06:00,
2013-01-22 05:16:00,49.0,44.1,29.58,SW,232,5.0,9.0,83,0.00,,,0.00,0,Wunderground v.1.15,2013-01-22 04:16:00,
2013-01-22 05:21:00,49.4,44.1,29.58,SW,219,6.0,6.0,82,0.00,,,0.00,0,Wunderground v.1.15,2013-01-22 04:21:00,
2013-01-22 05:26:00,49.6,44.0,29.58,SW,214,6.0,6.0,81,0.00,,,0.00,0,Wunderground v.1.15,2013-01-22 04:26:00,
2013-01-22 05:36:00,49.3,43.7,29.59,SSW,213,4.0,5.0,81,0.00,,,0.00,0,Wunderground v.1.15,2013-01-22 04:36:00,
2013-01-22 05:41:00,49.4,44.1,29.59,South,173,4.0,4.0,82,0.00,,,0.00,0,Wunderground v.1.15,2013-01-22 04:41:00,
2013-01-22 05:51:00,49.2,43.6,29.59,South,181,3.0,3.0,81,0.00,,,0.00,0,Wunderground v.1.15,2013-01-22 04:51:00,
2013-01-22 05:56:00,49.2,43.6,29.59,South,191,3.0,4.0,81,0.00,,,0.00,0,Wunderground v.1.15,2013-01-22 04:56:00,
2013-01-22 06:01:00,49.3,43.7,29.59,SW,231,4.0,6.0,81,0.00,,,0.00,0,Wunderground v.1.15,2013-01-22 05:01:00,
2013-01-22 06:06:00,49.4,43.5,29.59,South,178,4.0,6.0,80,0.00,,,0.00,0,Wunderground v.1.15,2013-01-22 05:06:00,
2013-01-22 06:11:00,49.4,43.5,29.59,SSE,160,3.0,3.0,80,0.00,,,0.00,0,Wunderground v.1.15,2013-01-22 05:11:00,
2013-01-22 06:21:00,49.3,43.1,29.59,SW,224,3.0,5.0,79,0.00,,,0.00,0,Wunderground v.1.15,2013-01-22 05:21:00,
2013-01-22 06:26:00,49.1,42.9,29.59,SSW,208,5.0,6.0,79,0.00,,,0.00,0,Wunderground v.1.15,2013-01-22 05:26:00,
2013-01-22 06:36:00,49.5,42.9,29.59,SW,221,7.0,7.0,78,0.00,,,0.00,0,Wunderground v.1.15,2013-01-22 05:36:00,
2013-01-22 06:41:00,49.5,42.9,29.59,SW,236,5.0,5.0,78,0.00,,,0.00,0,Wunderground v.1.15,2013-01-22 05:41:00,
2013-01-22 06:51:00,49.6,43.0,29.59,SW,229,6.0,7.0,78,0.00,,,0.00,0,Wunderground v.1.15,2013-01-22 05:51:00,
2013-01-22 06:56:00,49.7,43.1,29.59,SW,215,6.0,7.0,78,0.00,,,0.00,0,Wunderground v.1.15,2013-01-22 05:56:00,
2013-01-22 07:06:00,49.6,43.4,29.60,South,176,6.0,8.0,79,0.00,,,0.00,0,Wunderground v.1.15,2013-01-22 06:06:00,
2013-01-22 07:11:00,49.7,43.5,29.60,South,179,5.0,5.0,79,0.00,,,0.00,0,Wunderground v.1.15,2013-01-22 06:11:00,
2013-01-22 07:21:00,50.0,43.4,29.59,SW,221,6.0,7.0,78,0.00,,,0.00,0,Wunderground v.1.15,2013-01-22 06:21:00,
2013-01-22 07:26:00,50.3,43.0,29.59,WSW,254,7.0,7.0,76,0.00,,,0.00,0,Wunderground v.1.15,2013-01-22 06:26:00,
2013-01-22 07:31:00,50.4,43.1,29.59,WSW,239,6.0,6.0,76,0.00,,,0.00,0,Wunderground v.1.15,2013-01-22 06:31:00,
2013-01-22 07:41:00,50.6,42.6,29.60,SSW,201,7.0,7.0,74,0.00,,,0.00,7,Wunderground v.1.15,2013-01-22 06:41:00,
2013-01-22 07:46:00,50.6,42.3,29.59,WSW,256,5.0,7.0,73,0.00,,,0.00,9,Wunderground v.1.15,2013-01-22 06:46:00,
2013-01-22 07:51:00,50.7,42.0,29.59,SW,229,5.0,7.0,72,0.00,,,0.00,11,Wunderground v.1.15,2013-01-22 06:51:00,
2013-01-22 08:01:00,50.7,41.6,29.60,WNW,289,6.0,9.0,71,0.00,,,0.00,11,Wunderground v.1.15,2013-01-22 07:01:00,
2013-01-22 08:06:00,50.9,41.1,29.60,WSW,251,5.0,9.0,69,0.00,,,0.00,14,Wunderground v.1.15,2013-01-22 07:06:00,
2013-01-22 08:16:00,50.7,40.5,29.61,SW,221,8.0,8.0,68,0.00,,,0.00,33,Wunderground v.1.15,2013-01-22 07:16:00,
2013-01-22 08:21:00,50.9,40.7,29.61,WSW,242,10.0,15.0,68,0.00,,,0.00,37,Wunderground v.1.15,2013-01-22 07:21:00,
2013-01-22 08:26:00,51.1,40.9,29.62,SSW,209,12.0,15.0,68,0.00,,,0.00,49,Wunderground v.1.15,2013-01-22 07:26:00,
2013-01-22 08:36:00,51.2,40.6,29.63,SW,225,11.0,16.0,67,0.00,,,0.00,62,Wunderground v.1.15,2013-01-22 07:36:00,
2013-01-22 08:46:00,51.1,39.7,29.63,NNE,28,13.0,13.0,65,0.00,,,0.00,35,Wunderground v.1.15,2013-01-22 07:46:00,
2013-01-22 08:56:00,50.8,39.8,29.63,WSW,239,11.0,16.0,66,0.00,,,0.00,111,Wunderground v.1.15,2013-01-22 07:56:00,
2013-01-22 09:01:00,50.8,39.8,29.63,WSW,258,10.0,10.0,66,0.00,,,0.00,67,Wunderground v.1.15,2013-01-22 08:01:00,
2013-01-22 09:06:00,50.8,39.5,29.63,SSW,211,9.0,10.0,65,0.00,,,0.00,65,Wunderground v.1.15,2013-01-22 08:06:00,
2013-01-22 09:16:00,51.2,39.8,29.63,WSW,250,12.0,25.0,65,0.00,,,0.00,91,Wunderground v.1.15,2013-01-22 08:16:00,
2013-01-22 09:26:00,51.4,39.2,29.64,SW,225,14.0,18.0,63,0.00,,,0.00,102,Wunderground v.1.15,2013-01-22 08:26:00,
2013-01-22 09:31:00,51.5,39.3,29.64,SSW,213,15.0,15.0,63,0.00,,,0.00,79,Wunderground v.1.15,2013-01-22 08:31:00,
2013-01-22 09:36:00,51.6,39.4,29.64,West,276,14.0,19.0,63,0.00,,,0.00,93,Wunderground v.1.15,2013-01-22 08:36:00,
2013-01-22 09:46:00,51.5,38.9,29.63,SW,230,14.0,21.0,62,0.00,,,0.00,77,Wunderground v.1.15,2013-01-22 08:46:00,
2013-01-22 09:56:00,51.5,39.3,29.64,SW,229,14.0,14.0,63,0.00,,,0.00,139,Wunderground v.1.15,2013-01-22 08:56:00,
2013-01-22 10:06:00,51.8,39.6,29.65,SW,236,14.0,15.0,63,0.00,,,0.00,113,Wunderground v.1.15,2013-01-22 09:06:00,
2013-01-22 10:11:00,51.8,40.0,29.65,WNW,285,12.0,12.0,64,0.00,,,0.00,127,Wunderground v.1.15,2013-01-22 09:11:00,
2013-01-22 10:16:00,51.8,39.6,29.65,WSW,239,12.0,12.0,63,0.00,,,0.00,116,Wunderground v.1.15,2013-01-22 09:16:00,
2013-01-22 10:26:00,51.7,39.5,29.65,SSW,200,12.0,12.0,63,0.00,,,0.00,132,Wunderground v.1.15,2013-01-22 09:26:00,
2013-01-22 10:31:00,51.8,40.4,29.65,SSW,211,11.0,11.0,65,0.00,,,0.00,137,Wunderground v.1.15,2013-01-22 09:31:00,
2013-01-22 10:41:00,52.5,41.1,29.65,West,275,11.0,24.0,65,0.00,,,0.00,221,Wunderground v.1.15,2013-01-22 09:41:00,
2013-01-22 10:46:00,52.7,40.5,29.65,WSW,249,14.0,24.0,63,0.00,,,0.00,443,Wunderground v.1.15,2013-01-22 09:46:00,
2013-01-22 10:56:00,52.6,40.8,29.66,SW,234,11.0,14.0,64,0.00,,,0.00,90,Wunderground v.1.15,2013-01-22 09:56:00,
2013-01-22 11:06:00,52.0,40.2,29.65,WSW,250,12.0,17.0,64,0.00,,,0.00,86,Wunderground v.1.15,2013-01-22 10:06:00,
2013-01-22 11:11:00,51.9,40.1,29.65,SW,233,11.0,13.0,64,0.00,,,0.00,127,Wunderground v.1.15,2013-01-22 10:11:00,
2013-01-22 11:21:00,52.6,41.2,29.65,SW,223,13.0,18.0,65,0.00,,,0.00,181,Wunderground v.1.15,2013-01-22 10:21:00,
2013-01-22 11:31:00,53.3,40.6,29.65,West,261,11.0,19.0,62,0.00,,,0.00,262,Wunderground v.1.15,2013-01-22 10:31:00,
2013-01-22 11:36:00,53.1,40.4,29.65,WSW,247,11.0,19.0,62,0.00,,,0.00,146,Wunderground v.1.15,2013-01-22 10:36:00,
2013-01-22 11:46:00,53.0,40.7,29.65,WSW,255,12.0,19.0,63,0.00,,,0.00,462,Wunderground v.1.15,2013-01-22 10:46:00,
2013-01-22 11:56:00,53.3,41.0,29.64,South,171,13.0,13.0,63,0.00,,,0.00,552,Wunderground v.1.15,2013-01-22 10:56:00,
2013-01-22 12:01:00,53.7,41.4,29.64,SW,232,10.0,10.0,63,0.00,,,0.00,545,Wunderground v.1.15,2013-01-22 11:01:00,
2013-01-22 12:11:00,53.9,41.6,29.64,NW,318,9.0,9.0,63,0.00,,,0.00,622,Wunderground v.1.15,2013-01-22 11:11:00,
2013-01-22 12:16:00,54.0,41.3,29.64,West,264,9.0,9.0,62,0.00,,,0.00,165,Wunderground v.1.15,2013-01-22 11:16:00,
2013-01-22 12:26:00,53.8,41.5,29.64,SW,225,9.0,10.0,63,0.00,,,0.00,174,Wunderground v.1.15,2013-01-22 11:26:00,
2013-01-22 12:36:00,54.0,40.4,29.64,WSW,244,9.0,23.0,60,0.00,,,0.00,213,Wunderground v.1.15,2013-01-22 11:36:00,
2013-01-22 12:46:00,53.6,39.6,29.64,NW,324,11.0,11.0,59,0.00,,,0.00,555,Wunderground v.1.15,2013-01-22 11:46:00,
2013-01-22 12:56:00,53.7,37.0,29.64,WNW,298,11.0,17.0,53,0.00,,,0.00,165,Wunderground v.1.15,2013-01-22 11:56:00,
2013-01-22 13:01:00,53.8,37.1,29.64,West,273,12.0,12.0,53,0.00,,,0.00,141,Wunderground v.1.15,2013-01-22 12:01:00,
2013-01-22 13:06:00,54.0,37.2,29.64,WNW,286,10.0,12.0,53,0.00,,,0.00,158,Wunderground v.1.15,2013-01-22 12:06:00,
2013-01-22 13:16:00,54.5,38.2,29.63,WNW,282,10.0,13.0,54,0.00,,,0.00,533,Wunderground v.1.15,2013-01-22 12:16:00,
2013-01-22 13:21:00,54.3,37.5,29.63,SW,218,10.0,10.0,53,0.00,,,0.00,86,Wunderground v.1.15,2013-01-22 12:21:00,
2013-01-22 13:31:00,53.5,37.3,29.63,West,275,7.0,7.0,54,0.00,,,0.00,135,Wunderground v.1.15,2013-01-22 12:31:00,
2013-01-22 13:41:00,53.5,37.3,29.63,WNW,298,7.0,9.0,54,0.00,,,0.00,98,Wunderground v.1.15,2013-01-22 12:41:00,
2013-01-22 13:56:00,53.6,36.4,29.63,SW,225,9.0,11.0,52,0.00,,,0.00,102,Wunderground v.1.15,2013-01-22 12:56:00,
2013-01-22 14:01:00,53.5,36.3,29.64,SW,234,9.0,9.0,52,0.00,,,0.00,141,Wunderground v.1.15,2013-01-22 13:01:00,
2013-01-22 14:16:00,54.4,36.6,29.63,WNW,303,12.0,16.0,51,0.00,,,0.00,163,Wunderground v.1.15,2013-01-22 13:16:00,
2013-01-22 14:26:00,54.3,37.0,29.64,West,260,11.0,12.0,52,0.00,,,0.00,114,Wunderground v.1.15,2013-01-22 13:26:00,
2013-01-22 14:36:00,53.8,36.6,29.65,West,278,9.0,9.0,52,0.00,,,0.00,90,Wunderground v.1.15,2013-01-22 13:36:00,
2013-01-22 14:51:00,52.4,36.7,29.65,SW,223,8.0,9.0,55,0.00,,,0.00,70,Wunderground v.1.15,2013-01-22 13:51:00,
2013-01-22 15:01:00,51.5,37.2,29.66,SW,228,7.0,7.0,58,0.00,,,0.00,69,Wunderground v.1.15,2013-01-22 14:01:00,
2013-01-22 15:06:00,51.4,37.5,29.66,SW,226,7.0,7.0,59,0.00,,,0.00,86,Wunderground v.1.15,2013-01-22 14:06:00,
2013-01-22 15:21:00,51.5,39.3,29.67,SW,222,4.0,7.0,63,0.00,,,0.00,172,Wunderground v.1.15,2013-01-22 14:21:00,
2013-01-22 15:26:00,52.0,39.4,29.67,SW,222,4.0,7.0,62,0.00,,,0.00,239,Wunderground v.1.15,2013-01-22 14:26:00,
2013-01-22 15:36:00,52.8,39.3,29.67,NW,309,5.0,13.0,60,0.00,,,0.00,200,Wunderground v.1.15,2013-01-22 14:36:00,
2013-01-22 15:46:00,53.9,37.1,29.68,West,272,10.0,11.0,53,0.00,,,0.00,171,Wunderground v.1.15,2013-01-22 14:46:00,
2013-01-22 15:56:00,53.7,37.4,29.68,West,266,7.0,9.0,54,0.00,,,0.00,158,Wunderground v.1.15,2013-01-22 14:56:00,
2013-01-22 16:06:00,53.8,37.1,29.68,West,280,8.0,9.0,53,0.00,,,0.00,116,Wunderground v.1.15,2013-01-22 15:06:00,
2013-01-22 16:26:00,53.0,36.8,29.69,West,271,6.0,9.0,54,0.00,,,0.00,54,Wunderground v.1.15,2013-01-22 15:26:00,
2013-01-22 16:36:00,52.7,37.0,29.69,West,261,5.0,6.0,55,0.00,,,0.00,11,Wunderground v.1.15,2013-01-22 15:36:00,
2013-01-22 16:46:00,52.4,37.2,29.70,WSW,254,4.0,5.0,56,0.00,,,0.00,9,Wunderground v.1.15,2013-01-22 15:46:00,
2013-01-22 16:51:00,52.2,37.4,29.70,SW,219,3.0,3.0,57,0.00,,,0.00,9,Wunderground v.1.15,2013-01-22 15:51:00,
2013-01-22 17:01:00,51.9,37.6,29.70,SW,232,2.0,2.0,58,0.00,,,0.00,5,Wunderground v.1.15,2013-01-22 16:01:00,
2013-01-22 17:06:00,51.6,37.7,29.70,South,187,2.0,2.0,59,0.00,,,0.00,5,Wunderground v.1.15,2013-01-22 16:06:00,
2013-01-22 17:11:00,51.4,38.4,29.70,South,173,2.0,2.0,61,0.00,,,0.00,0,Wunderground v.1.15,2013-01-22 16:11:00,
2013-01-22 17:21:00,51.2,38.6,29.70,South,184,1.0,1.0,62,0.00,,,0.00,0,Wunderground v.1.15,2013-01-22 16:21:00,
2013-01-22 17:31:00,51.0,38.8,29.71,South,184,1.0,1.0,63,0.00,,,0.00,0,Wunderground v.1.15,2013-01-22 16:31:00,
2013-01-22 17:36:00,50.9,39.1,29.71,South,184,0.0,1.0,64,0.00,,,0.00,0,Wunderground v.1.15,2013-01-22 16:36:00,
2013-01-22 17:51:00,50.7,39.0,29.71,South,184,0.0,0.0,64,0.00,,,0.00,0,Wunderground v.1.15,2013-01-22 16:51:00,
2013-01-22 18:01:00,50.8,38.7,29.72,South,184,0.0,0.0,63,0.00,,,0.00,0,Wunderground v.1.15,2013-01-22 17:01:00,
2013-01-22 18:06:00,50.4,39.1,29.72,South,184,0.0,0.0,65,0.00,,,0.00,0,Wunderground v.1.15,2013-01-22 17:06:00,
2013-01-22 18:16:00,49.6,39.1,29.72,South,184,0.0,0.0,67,0.00,,,0.00,0,Wunderground v.1.15,2013-01-22 17:16:00,
2013-01-22 18:26:00,50.1,38.8,29.73,South,184,0.0,0.0,65,0.00,,,0.00,0,Wunderground v.1.15,2013-01-22 17:26:00,
2013-01-22 18:36:00,49.7,39.2,29.73,South,184,0.0,0.0,67,0.00,,,0.00,0,Wunderground v.1.15,2013-01-22 17:36:00,
2013-01-22 18:41:00,49.8,38.5,29.73,South,184,0.0,0.0,65,0.00,,,0.00,0,Wunderground v.1.15,2013-01-22 17:41:00,
2013-01-22 18:51:00,49.3,39.2,29.73,South,184,0.0,0.0,68,0.00,,,0.00,0,Wunderground v.1.15,2013-01-22 17:51:00,
2013-01-22 19:01:00,49.1,39.0,29.74,South,184,0.0,0.0,68,0.00,,,0.00,0,Wunderground v.1.15,2013-01-22 18:01:00,
2013-01-22 19:11:00,48.4,39.1,29.74,ENE,74,1.0,1.0,70,0.00,,,0.00,0,Wunderground v.1.15,2013-01-22 18:11:00,
2013-01-22 19:31:00,47.4,39.2,29.74,ENE,74,0.0,0.0,73,0.00,,,0.00,0,Wunderground v.1.15,2013-01-22 18:31:00,
2013-01-22 19:41:00,46.9,39.0,29.75,ENE,74,0.0,0.0,74,0.00,,,0.00,0,Wunderground v.1.15,2013-01-22 18:41:00,
2013-01-22 19:51:00,46.2,39.1,29.75,ENE,74,0.0,0.0,76,0.00,,,0.00,0,Wunderground v.1.15,2013-01-22 18:51:00,
2013-01-22 20:01:00,46.2,39.7,29.75,ENE,74,0.0,0.0,78,0.00,,,0.00,0,Wunderground v.1.15,2013-01-22 19:01:00,
2013-01-22 20:11:00,45.3,38.8,29.76,NNE,12,1.0,3.0,78,0.00,,,0.00,0,Wunderground v.1.15,2013-01-22 19:11:00,
2013-01-22 20:26:00,45.3,38.8,29.77,SSE,163,2.0,4.0,78,0.00,,,0.00,0,Wunderground v.1.15,2013-01-22 19:26:00,
2013-01-22 20:36:00,45.0,38.6,29.77,SSE,161,2.0,3.0,78,0.00,,,0.00,0,Wunderground v.1.15,2013-01-22 19:36:00,
2013-01-22 20:46:00,44.8,38.4,29.77,SE,130,1.0,1.0,78,0.00,,,0.00,0,Wunderground v.1.15,2013-01-22 19:46:00,
2013-01-22 20:51:00,44.8,38.4,29.77,ESE,121,1.0,1.0,78,0.00,,,0.00,0,Wunderground v.1.15,2013-01-22 19:51:00,
2013-01-22 21:01:00,44.5,38.1,29.77,SE,126,1.0,1.0,78,0.00,,,0.00,0,Wunderground v.1.15,2013-01-22 20:01:00,
2013-01-22 21:11:00,44.3,38.2,29.77,East,89,2.0,2.0,79,0.00,,,0.00,0,Wunderground v.1.15,2013-01-22 20:11:00,
2013-01-22 21:16:00,44.1,38.0,29.77,ESE,105,2.0,2.0,79,0.00,,,0.00,0,Wunderground v.1.15,2013-01-22 20:16:00,
2013-01-22 21:31:00,43.4,37.6,29.78,ENE,69,1.0,1.0,80,0.00,,,0.00,0,Wunderground v.1.15,2013-01-22 20:31:00,
2013-01-22 21:36:00,43.1,37.7,29.78,NE,35,2.0,4.0,81,0.00,,,0.00,0,Wunderground v.1.15,2013-01-22 20:36:00,
2013-01-22 21:41:00,43.1,38.0,29.78,ENE,71,3.0,4.0,82,0.00,,,0.00,0,Wunderground v.1.15,2013-01-22 20:41:00,
2013-01-22 21:51:00,43.8,38.3,29.78,South,175,2.0,2.0,81,0.00,,,0.00,0,Wunderground v.1.15,2013-01-22 20:51:00,
2013-01-22 22:01:00,44.2,38.1,29.78,SE,142,4.0,5.0,79,0.00,,,0.00,0,Wunderground v.1.15,2013-01-22 21:01:00,
2013-01-22 22:06:00,44.2,38.1,29.78,ESE,120,4.0,9.0,79,0.00,,,0.00,0,Wunderground v.1.15,2013-01-22 21:06:00,
2013-01-22 22:26:00,44.3,38.2,29.78,ESE,122,1.0,3.0,79,0.00,,,0.00,0,Wunderground v.1.15,2013-01-22 21:26:00,
2013-01-22 22:31:00,44.3,38.2,29.78,East,92,0.0,0.0,79,0.00,,,0.00,0,Wunderground v.1.15,2013-01-22 21:31:00,
2013-01-22 22:41:00,45.0,38.9,29.78,SSE,166,2.0,2.0,79,0.00,,,0.00,0,Wunderground v.1.15,2013-01-22 21:41:00,
2013-01-22 22:46:00,45.1,39.0,29.78,SE,142,1.0,2.0,79,0.00,,,0.00,0,Wunderground v.1.15,2013-01-22 21:46:00,
2013-01-22 22:51:00,44.9,39.1,29.78,SE,142,0.0,0.0,80,0.00,,,0.00,0,Wunderground v.1.15,2013-01-22 21:51:00,
2013-01-22 22:56:00,44.8,39.0,29.78,SE,142,0.0,0.0,80,0.00,,,0.00,0,Wunderground v.1.15,2013-01-22 21:56:00,
2013-01-22 23:06:00,44.5,39.0,29.78,East,90,1.0,1.0,81,0.00,,,0.00,0,Wunderground v.1.15,2013-01-22 22:06:00,
2013-01-22 23:11:00,44.7,39.2,29.78,East,101,0.0,0.0,81,0.00,,,0.00,0,Wunderground v.1.15,2013-01-22 22:11:00,
2013-01-22 23:16:00,44.7,39.2,29.78,ENE,69,1.0,2.0,81,0.00,,,0.00,0,Wunderground v.1.15,2013-01-22 22:16:00,
2013-01-22 23:31:00,45.2,39.4,29.78,SE,140,1.0,3.0,80,0.00,,,0.00,0,Wunderground v.1.15,2013-01-22 22:31:00,
2013-01-22 23:36:00,45.6,39.5,29.79,SSE,154,2.0,3.0,79,0.00,,,0.00,0,Wunderground v.1.15,2013-01-22 22:36:00,
2013-01-22 23:41:00,45.7,39.6,29.79,SSE,154,1.0,1.0,79,0.00,,,0.00,0,Wunderground v.1.15,2013-01-22 22:41:00,
2013-01-22 23:56:00,45.4,39.6,29.80,SSW,197,1.0,9.0,80,0.00,,,0.00,0,Wunderground v.1.15,2013-01-22 22:56:00,